Tracking 31027 objects as of 19-Jul-2025
HD Live streaming from Space Station
objects crossing your sky now

USA 310

Track USA 310 now!
10-day predictions
USA 310 is classified as:


NORAD ID: 46918
Int'l Code: 2020-083A
Perigee: 11,081.2 km
Apogee: 11,104.6 km
Inclination: 58.5 °
Period: 382.8 minutes
Semi major axis: 17463 km
RCS: Unknown
Launch date: November 13, 2020
Source: United States (US)
Launch site: AIR FORCE EASTERN TEST RANGE (AFETR)
Your satellite tracking list
ST5-A
Track 1 satellite(s)




NASA's NSSDC Master Catalog

Two Line Element Set (TLE):
1 46918U 20083A   23250.72167034 0.00000000  00000-0  00000-0 0    06
2 46918  58.5225 136.1602 0006695 326.5223  33.4777  3.76176694    05
Source of the keplerian elements: McCants